"Pseudo-MPEC" for A116Gfp

Created 2024 May 21 19:22:02 UT using Find_Orb

Click here for an explanation of pseudo-MPECs

 
 Astrometry: 
     A116Gfp* C2024 05 148Ic^)d:tAoWn8yoI5c@aS;*yJ!!Zo)Lsld1$wRtTfSI5h3/)fJ3fT05
     A116Gfp  C2024 05 14N4AOI7XudK:f6=BlKBX$kHFXW)AstrometryE\e0redacted;+`_T05
     A116Gfp  C2024 05 14.wr];ww(3yU.clickKQAOviPUFY\P?m5%,CWXrU$ThtTherew\%NT05
     A116Gfp  C2024 05 14#.Kl^mrZ)forSP7X]Z5explanation;:bKr9Fp7)u?,*jSBJF:^OT05

Station data:
(T05) ATLAS-HKO, Haleakala  (N20.707551 W156.257010)  US/Hawaii.  Observers
   L. Denneau, A. Heinze, H. Weiland, J. Tonry, H. Flewelling, A.
   Fitzsimmons, D. Young, B. Stalder. Measurers L. Denneau, A. Heinze, J.
   Tonry. 0.5-m f/2.0 Schmidt + CCD.

Orbital elements:  A116Gfp
   Perigee 2024 May 14.12703 +/- 17.5 TT =  3:02:55 (JD 2460444.62703)
Epoch 2024 May 14.0 TT = JDT 2460444.5                           AutoNEOCP
q366777.382 +/- 3.29e+6             (J2000 equator)
H   28.63 G 0.15                    Peri.  282.56318 +/- 20
                                    Node   269.63054 +/- 0.12
e 128.9761485 +/- 0.25              Incl.    7.90861 +/- 2.0
From 4 observations 2024 May 14 (16.3 min); mean residual 3".15
Residuals in arcseconds: 
240514 T05  5.4+  .75+    240514 T05  5.9-  .42-    
240514 T05  2.4-  .60-    240514 T05  2.9+  .27+    

Ephemerides (geocentric):
Date (UTC) HH   RA             Dec           delta  r     elong  mag " sig PA
---- --------  ------------   ------------  ------ ------ -----  --- --------
2024 05 21 19  18 38 38.034   +01 17 07.16  .05240 1.0496 134.5 24.0  32d  96
2024 05 21 20  18 38 41.028   +01 17 09.83  .05268 1.0498 134.5 24.0  32d  96
2024 05 21 21  18 38 43.982   +01 17 12.39  .05297 1.0500 134.5 24.0  31d  96
2024 05 21 22  18 38 46.897   +01 17 14.86  .05325 1.0503 134.5 24.0  31d  96
2024 05 21 23  18 38 49.774   +01 17 17.23  .05354 1.0505 134.5 24.1  30d  96
2024 05 22 00  18 38 52.612   +01 17 19.50  .05382 1.0507 134.6 24.1  30d  96
2024 05 22 01  18 38 55.412   +01 17 21.68  .05411 1.0510 134.6 24.1  30d  96
2024 05 22 02  18 38 58.176   +01 17 23.77  .05439 1.0512 134.6 24.1  29d  96
2024 05 22 03  18 39 00.903   +01 17 25.77  .05468 1.0514 134.6 24.1  29d  96
2024 05 22 04  18 39 03.594   +01 17 27.67  .05496 1.0516 134.7 24.1  29d  96
2024 05 22 05  18 39 06.250   +01 17 29.48  .05525 1.0519 134.7 24.1  28d  96
2024 05 22 06  18 39 08.870   +01 17 31.21  .05553 1.0521 134.7 24.1  28d  96
2024 05 22 07  18 39 11.457   +01 17 32.84  .05582 1.0523 134.7 24.1  27d  96
2024 05 22 08  18 39 14.009   +01 17 34.39  .05610 1.0526 134.8 24.2  27d  96
2024 05 22 09  18 39 16.528   +01 17 35.85  .05639 1.0528 134.8 24.2  26d  96
2024 05 22 10  18 39 19.014   +01 17 37.23  .05667 1.0530 134.8 24.2  26d  96
2024 05 22 11  18 39 21.467   +01 17 38.52  .05696 1.0533 134.8 24.2  25d  96
2024 05 22 12  18 39 23.888   +01 17 39.73  .05724 1.0535 134.8 24.2  24d  96
2024 05 22 13  18 39 26.277   +01 17 40.85  .05753 1.0537 134.9 24.2  39d  95
2024 05 22 14  18 39 28.635   +01 17 41.90  .05781 1.0540 134.9 24.2  35d  96
2024 05 22 15  18 39 30.963   +01 17 42.86  .05810 1.0542 134.9 24.2  33d  96
2024 05 22 16  18 39 33.260   +01 17 43.74  .05838 1.0544 134.9 24.2  32d  96
2024 05 22 17  18 39 35.526   +01 17 44.55  .05867 1.0547 135.0 24.2  32d  96
2024 05 22 18  18 39 37.764   +01 17 45.27  .05895 1.0549 135.0 24.3  31d  96
2024 05 22 19  18 39 39.972   +01 17 45.92  .05924 1.0551 135.0 24.3  31d  96
2024 05 22 20  18 39 42.151   +01 17 46.49  .05952 1.0554 135.0 24.3  30d  96
2024 05 22 21  18 39 44.301   +01 17 46.98  .05981 1.0556 135.1 24.3  30d  96
2024 05 22 22  18 39 46.424   +01 17 47.40  .06009 1.0558 135.1 24.3  30d  96
2024 05 22 23  18 39 48.519   +01 17 47.75  .06038 1.0561 135.1 24.3  29d  96
2024 05 23 00  18 39 50.586   +01 17 48.01  .06066 1.0563 135.1 24.3  29d  96
2024 05 23 01  18 39 52.626   +01 17 48.21  .06095 1.0565 135.2 24.3  29d  96
2024 05 23 02  18 39 54.640   +01 17 48.33  .06123 1.0568 135.2 24.3  28d  96
2024 05 23 03  18 39 56.627   +01 17 48.38  .06152 1.0570 135.2 24.3  28d  96
2024 05 23 04  18 39 58.588   +01 17 48.36  .06180 1.0573 135.2 24.4  28d  96
2024 05 23 05  18 40 00.523   +01 17 48.27  .06209 1.0575 135.3 24.4  27d  96
2024 05 23 06  18 40 02.433   +01 17 48.11  .06237 1.0577 135.3 24.4  27d  96
2024 05 23 07  18 40 04.318   +01 17 47.88  .06266 1.0580 135.3 24.4  26d  96
2024 05 23 08  18 40 06.178   +01 17 47.58  .06294 1.0582 135.3 24.4  25d  96
2024 05 23 09  18 40 08.014   +01 17 47.21  .06323 1.0584 135.4 24.4  24d  96
2024 05 23 10  18 40 09.825   +01 17 46.77  .06351 1.0587 135.4 24.4  40d  95
2024 05 23 11  18 40 11.613   +01 17 46.27  .06380 1.0589 135.4 24.4  35d  96
2024 05 23 12  18 40 13.377   +01 17 45.70  .06408 1.0592 135.5 24.4  34d  96
2024 05 23 13  18 40 15.117   +01 17 45.06  .06437 1.0594 135.5 24.4  33d  96
2024 05 23 14  18 40 16.835   +01 17 44.36  .06465 1.0596 135.5 24.4  32d  96
2024 05 23 15  18 40 18.529   +01 17 43.59  .06494 1.0599 135.5 24.5  31d  96
2024 05 23 16  18 40 20.201   +01 17 42.76  .06522 1.0601 135.6 24.5  31d  96
2024 05 23 17  18 40 21.851   +01 17 41.87  .06551 1.0604 135.6 24.5  30d  96
2024 05 23 18  18 40 23.479   +01 17 40.91  .06579 1.0606 135.6 24.5  30d  96